AV279 Weather Reports


time (UTC)temp
F
wind
direction
speed
knots
gust
knots
rain 1hr
in
rain 24hr
in
rain mn
in
humidity
%
barometer
mb
20260510130041 59 23 10.4 17.4 0.00 0.00 0.00 70 1013.3
20260510125018 59 23 7.8 18.2 0.00 0.00 0.00 69 1013.2
20260510124018 59 23 7.8 12.2 0.00 0.00 0.00 71 1013.4
20260510123018 59 23 10.4 12.2 0.00 0.00 0.00 71 1013.5
20260510122019 59 23 8.7 15.6 0.00 0.00 0.00 72 1013.6
20260510121029 59 23 9.6 13.9 0.00 0.00 0.00 71 1013.5
20260510120019 60 0 8.7 15.6 0.00 0.00 0.00 71 1013.5
20260510115019 59 45 8.7 13.0 0.00 0.00 0.00 72 1013.5
20260510114020 60 45 5.2 11.3 0.00 0.00 0.00 71 1013.7
20260510113042 60 45 7.0 13.0 0.00 0.00 0.00 71 1014.0
20260510112018 60 23 8.7 15.6 0.00 0.00 0.00 71 1014.1
20260510111018 60 23 10.4 14.8 0.00 0.00 0.00 70 1014.0
20260510110049 60 23 13.0 19.1 0.00 0.00 0.00 70 1013.8
20260510105018 60 0 9.6 11.3 0.00 0.00 0.00 70 1014.0
20260510104018 60 45 9.6 18.2 0.00 0.00 0.00 69 1013.7
20260510103018 60 45 5.2 10.4 0.00 0.00 0.00 69 1013.8
20260510102018 61 0 8.7 17.4 0.00 0.00 0.00 68 1014.1
20260510101029 61 45 4.3 7.0 0.00 0.00 0.00 67 1013.9
20260510100040 61 23 8.7 14.8 0.00 0.00 0.00 68 1014.1
20260510095018 60 23 7.0 14.8 0.00 0.00 0.00 67 1014.3
20260510094020 61 45 7.0 13.0 0.00 0.00 0.00 67 1014.1
20260510093049 61 0 9.6 18.2 0.00 0.00 0.00 66 1014.3
20260510092042 60 23 8.7 13.9 0.00 0.00 0.00 68 1014.4
20260510091112 60 0 4.3 7.8 0.00 0.00 0.00 67 1014.3
20260510090020 61 45 6.1 9.6 0.00 0.00 0.00 67 1014.1
20260510085101 61 23 7.0 12.2 0.00 0.00 0.00 66 1013.9
20260510084020 60 45 8.7 13.0 0.00 0.00 0.00 64 1014.1
20260510083020 60 0 9.6 13.9 0.00 0.00 0.00 67 1014.3
20260510082018 60 23 6.1 13.0 0.00 0.00 0.00 69 1014.2
20260510081040 60 23 5.2 14.8 0.00 0.00 0.00 69 1014.4
20260510080038 59 45 7.0 10.4 0.00 0.00 0.00 68 1014.4
20260510075020 59 45 7.8 12.2 0.00 0.00 0.00 67 1014.7
20260510074018 60 23 10.4 15.6 0.00 0.00 0.00 68 1014.7
20260510073020 59 45 6.1 11.3 0.00 0.00 0.00 69 1014.8
20260510072018 59 23 6.1 12.2 0.00 0.00 0.00 70 1014.8
20260510071052 58 23 8.7 11.3 0.00 0.00 0.00 70 1015.0
20260510070040 58 0 6.1 9.6 0.00 0.00 0.00 71 1015.0
20260510065031 57 45 6.1 11.3 0.00 0.00 0.00 73 1015.0
20260510064020 57 45 6.1 9.6 0.00 0.00 0.00 75 1015.1
20260510063003 56 45 4.3 8.7 0.00 0.00 0.00 76 1015.0
20260510062044 56 338 4.3 8.7 0.00 0.00 0.00 79 1015.0
20260510061020 55 0 3.5 5.2 0.00 0.00 0.00 79 1014.9
20260510060040 55 45 3.5 7.0 0.00 0.00 0.00 81 1014.8
20260510055020 54 45 7.0 9.6 0.00 0.00 0.00 82 1014.7
20260510054019 54 45 4.3 8.7 0.00 0.00 0.00 82 1014.8
20260510053020 54 45 3.5 7.0 0.00 0.00 0.00 83 1014.8
20260510052050 53 45 4.3 7.0 0.00 0.00 0.00 84 1014.9
20260510051031 53 68 1.7 3.5 0.00 0.00 0.00 84 1014.8
20260510050031 53 45 7.0 12.2 0.00 0.00 0.00 85 1014.7
20260510045020 53 45 3.5 9.6 0.00 0.00 0.00 85 1014.7
20260510044020 53 45 3.5 5.2 0.00 0.00 0.00 86 1014.9
20260510043020 53 0 3.5 7.8 0.00 0.00 0.00 85 1014.9
20260510042100 53 315 1.7 3.5 0.00 0.00 0.00 85 1014.8
20260510041019 53 68 2.6 4.3 0.00 0.00 0.00 85 1014.7
20260510040020 53 45 3.5 7.8 0.00 0.00 0.00 84 1014.7
20260510035020 53 23 3.5 8.7 0.00 0.00 0.00 84 1014.5
20260510034041 53 23 4.3 7.8 0.00 0.00 0.00 84 1014.5
20260510033020 53 23 3.5 5.2 0.00 0.00 0.00 84 1014.5
20260510032019 53 90 3.5 7.8 0.00 0.00 0.00 84 1014.6
20260510031040 53 23 3.5 5.2 0.00 0.00 0.00 84 1014.6
20260510030019 53 23 0.9 1.7 0.00 0.00 0.00 85 1014.6
20260510025050 53 23 2.6 3.5 0.00 0.00 0.00 85 1014.6
20260510024020 53 45 3.5 5.2 0.00 0.00 0.00 85 1014.6
20260510023020 54 338 1.7 6.1 0.00 0.00 0.00 84 1014.7
20260510022030 54 23 2.6 3.5 0.00 0.00 0.00 84 1014.7
20260510021019 54 68 1.7 2.6 0.00 0.00 0.00 84 1014.8
20260510020020 54 23 1.7 3.5 0.00 0.00 0.00 84 1014.9
20260510015041 54 45 3.5 7.0 0.00 0.00 0.00 84 1014.9
20260510014041 54 0 5.2 8.7 0.00 0.00 0.00 83 1015.0
20260510013020 54 0 4.3 7.8 0.00 0.00 0.00 83 1015.0
20260510012101 54 0 2.6 4.3 0.00 0.00 0.00 83 1015.1
20260510011019 54 23 2.6 7.0 0.00 0.00 0.00 83 1015.1
20260510010019 54 23 4.3 9.6 0.00 0.00 0.00 82 1015.1
20260510005019 54 45 3.5 5.2 0.00 0.00 0.00 81 1015.2
20260510004019 54 23 3.5 5.2 0.00 0.00 0.00 81 1015.4
20260510003019 54 45 3.5 4.3 0.00 0.00 0.00 81 1015.6
20260510002019 54 45 1.7 2.6 0.00 0.00 0.00 80 1015.6
20260510001019 54 23 3.5 4.3 0.00 0.00 0.00 80 1015.6
20260510000019 54 0 2.6 4.3 0.00 0.00 0.00 79 1015.7
20260509235030 54 23 2.6 4.3 0.00 0.00 0.00 79 1015.7
20260509234019 54 23 3.5 5.2 0.00 0.00 0.00 78 1015.7
20260509233019 54 45 4.3 6.1 0.00 0.00 0.00 78 1015.8
20260509232042 54 23 3.5 4.3 0.00 0.00 0.00 77 1016.0
20260509231213 54 45 2.6 4.3 0.00 0.00 0.00 77 1015.8
20260509230820 55 23 2.6 4.3 0.00 0.00 0.00 77 1015.9
20260509225819 55 45 3.5 7.0 0.00 0.00 0.00 77 1015.9
20260509224819 55 45 5.2 8.7 0.00 0.00 0.00 76 1016.0
20260509223841 55 45 3.5 8.7 0.00 0.00 0.00 75 1016.0
20260509222819 55 23 5.2 8.7 0.00 0.00 0.00 75 1016.0
20260509221819 55 45 3.5 5.2 0.00 0.00 0.00 75 1015.9
20260509220819 55 23 3.5 5.2 0.00 0.00 0.00 74 1016.0
20260509215830 55 23 3.5 7.0 0.00 0.00 0.00 73 1015.9
20260509214830 55 0 5.2 7.8 0.00 0.00 0.00 73 1015.9
20260509213819 55 23 3.5 5.2 0.00 0.00 0.00 72 1016.0
20260509212819 55 45 1.7 3.5 0.00 0.00 0.00 71 1015.9
20260509211819 55 23 1.7 3.5 0.00 0.00 0.00 71 1015.9
20260509210841 56 45 2.6 4.3 0.00 0.00 0.00 71 1015.9
20260509205919 56 45 1.7 3.5 0.00 0.00 0.00 71 1015.9
20260509204819 56 23 1.7 3.5 0.00 0.00 0.00 71 1015.7
20260509203819 56 23 3.5 6.1 0.00 0.00 0.00 71 1015.7
20260509202839 56 23 3.5 7.0 0.00 0.00 0.00 72 1015.7
20260509201839 56 23 3.5 4.3 0.00 0.00 0.00 72 1015.4
20260509200819 56 45 2.6 4.3 0.00 0.00 0.00 72 1015.6
20260509195830 56 45 2.6 4.3 0.00 0.00 0.00 71 1015.6
20260509194819 57 23 2.6 6.1 0.00 0.00 0.00 71 1015.5
20260509193819 57 0 4.3 7.0 0.00 0.00 0.00 71 1015.5
20260509192819 57 23 3.5 6.1 0.00 0.00 0.00 71 1015.4
20260509191819 58 315 2.6 7.0 0.00 0.00 0.00 70 1015.4
20260509190819 58 45 2.6 5.2 0.00 0.00 0.00 69 1015.2
20260509190024 58 23 3.5 5.2 0.00 0.00 0.00 68 1015.2
20260509185150 59 45 4.3 7.0 0.00 0.00 0.00 68 1015.4
20260509184121 59 23 3.5 6.1 0.00 0.00 0.00 67 1015.3
20260509183139 59 45 5.2 7.8 0.00 0.00 0.00 67 1015.3
20260509182119 60 23 3.5 7.0 0.00 0.00 0.00 66 1015.2
20260509181140 60 23 2.6 4.3 0.00 0.00 0.00 65 1015.2
20260509180119 60 23 4.3 8.7 0.00 0.00 0.00 64 1015.2
20260509175140 61 45 6.1 8.7 0.00 0.00 0.00 65 1015.1
20260509174119 61 23 3.5 7.8 0.00 0.00 0.00 64 1015.0
20260509173119 61 0 6.1 14.8 0.00 0.00 0.00 64 1014.9
20260509172119 62 0 7.8 12.2 0.00 0.00 0.00 63 1015.0
20260509171130 62 45 4.3 7.8 0.00 0.00 0.00 62 1015.0
20260509170151 63 23 7.0 13.0 0.00 0.00 0.00 60 1015.0
20260509165130 63 45 6.1 13.9 0.00 0.00 0.00 61 1014.9
20260509164130 63 45 5.2 9.6 0.00 0.00 0.00 61 1015.1
20260509163316 63 23 4.3 7.8 0.00 0.00 0.00 61 1015.0
20260509162919 63 23 5.2 10.4 0.00 0.00 0.00 61 1015.0
20260509162132 64 0 4.3 7.8 0.00 0.00 0.00 61 1015.0
20260509161630 64 45 3.5 6.1 0.00 0.00 0.00 60 1015.1
20260509160629 64 23 4.3 8.7 0.00 0.00 0.00 58 1015.2
20260509155639 65 0 5.2 13.9 0.00 0.00 0.00 55 1015.1
20260509154711 65 23 7.8 10.4 0.00 0.00 0.00 54 1015.1
20260509153629 65 45 5.2 7.8 0.00 0.00 0.00 53 1015.2
20260509152619 65 45 7.8 10.4 0.00 0.00 0.00 54 1015.3
20260509151711 66 0 5.2 10.4 0.00 0.00 0.00 54 1015.3
20260509150618 66 23 7.8 13.0 0.00 0.00 0.00 53 1015.2
20260509145618 66 23 6.1 11.3 0.00 0.00 0.00 53 1015.0
20260509144640 66 23 7.8 14.8 0.00 0.00 0.00 54 1015.1
20260509143649 66 23 7.0 15.6 0.00 0.00 0.00 55 1015.1
20260509142629 67 338 7.8 13.0 0.00 0.00 0.00 55 1015.1
20260509141619 67 23 10.4 19.1 0.00 0.00 0.00 54 1015.4
20260509140619 67 23 6.1 10.4 0.00 0.00 0.00 53 1015.2
20260509135649 68 23 7.0 12.2 0.00 0.00 0.00 53 1015.2
20260509134619 68 23 4.3 9.6 0.00 0.00 0.00 52 1015.4
20260509133639 69 0 7.0 13.0 0.00 0.00 0.00 52 1015.4
20260509132639 70 45 7.8 16.5 0.00 0.00 0.00 50 1015.4
20260509131650 70 23 5.2 10.4 0.00 0.00 0.00 52 1015.4
20260509130620 69 23 7.0 12.2 0.00 0.00 0.00 52 1015.4